Live-Position
3D-Globus wird geladen...
Über OneWeb SL0405
Group: 3 satellites
Beschreibung wird geladen...
Nächste Überflüge
Passes for default location (London). Set your location on the main map for personalized predictions.
Höhenverlauf
Loading altitude history...
No altitude history available
Zweizeiliger Elementsatz
1 50485U 21132S 26126.09622677 -.00000043 00000-0 -14237-3 0 9996
2 50485 87.9190 343.8123 0001373 80.6689 279.4598 13.18684611216443
Epoch: 6. Mai 2026 •
Age: 23 hours
Aktueller Status
Höhe 1193.3 km
Geschwindigkeit 7.26 km/s
Subsatellitenpunkt 30.79°N,
76.24°W
Startdatum 27. Dez. 2021
Alter 4.3 years
Typ internet
Startgruppe
Unknown Vehicle •
OneWeb Launch 12 •
36 satellites
OneWeb SL0389
50469
OneWeb SL0390 50470
OneWeb SL0391 50471
OneWeb SL0392 50472
OneWeb SL0393 50473
OneWeb SL0394 50474
OneWeb SL0395 50475
OneWeb SL0396 50476
OneWeb SL0397 50477
OneWeb SL0398 50478
OneWeb SL0399 50479
OneWeb SL0400 50480
OneWeb SL0401 50481
OneWeb SL0402 50482
OneWeb SL0403 50483
OneWeb SL0404 50484
OneWeb SL0406 50486
OneWeb SL0407 50487
OneWeb SL0409 50488
OneWeb SL0412 50489
...and 15 more
Technische Details
Klassifizierung Payload
Masse 148.00 kg
Trockenmasse 140.00 kg
Gesamtmasse 148.00 kg
Länge 1.30 m
Durchmesser 1.00 m
Spannweite 5.00 m
Form Trapezoid+2 pan
Hersteller ONEWUS
Bus-Typ ARROW
Phasenstatus In Orbit
Besitzer/Staat ONEWEBN/UK
Most Searched
Loading...